Hourly Data Report for October 23, 2013

All times are specified in Local Standard Time (LST). Add 1 hour to adjust for Daylight Saving Time where and when it is observed.

KITCHENER/WATERLOO
ONTARIO

43°27'39.000" N
80°22'43.000" W
321.60 m
6144239
71368
YKF

Download Data

Hourly Data (October 2013)
Hourly Data Report for October 23, 2013
Temp Definition
°C
Dew Point Temp Definition
°C
Rel Hum Definition
%
Wind Dir Definition
10's deg

Wind Spd Definition
km/h
Visibility Definition
km
Stn Press Definition
kPa
Hmdx Definition


Wind Chill Definition


Weather Definition


TIME
00:00 Legend Double Dagger 3.1 1.5 89   0 16.1 97.11     LegendNANA
01:00 Legend Double Dagger 1.6 0.9 95 34 8 16.1 97.08     LegendNANA
02:00 Legend Double Dagger 2.3 1.4 94 27 4 16.1 97.04     LegendNANA
03:00 Legend Double Dagger 2.5 1.6 94 32 5 16.1 96.99     LegendNANA
04:00 Legend Double Dagger 2.8 1.9 94 30 9 16.1 96.95     LegendNANA
05:00 Legend Double Dagger 2.8 1.9 94 27 9 16.1 96.94     LegendNANA
06:00 Legend Double Dagger 2.5 1.7 94 28 11 16.1 96.93     LegendNANA
07:00 Legend Double Dagger 2.1 1.3 94 29 13 16.1 96.95     LegendNANA
08:00 Legend Double Dagger 2.5 1.7 95 29 11 16.1 96.98     LegendNANA
09:00 Legend Double Dagger 3.3 1.8 90 32 11 16.1 96.98     LegendNANA
10:00 Legend Double Dagger 4.2 2.1 86 32 13 16.1 96.97     LegendNANA
11:00 Legend Double Dagger 5.2 1.2 75 31 22 16.1 96.98     LegendNANA
12:00 Legend Double Dagger 6.1 0.2 66 33 18 16.1 96.94     LegendNANA
13:00 Legend Double Dagger 6.1 -2.1 56 32 22 16.1 96.90     LegendNANA
14:00 Legend Double Dagger 6.4 -3.3 50 32 18 16.1 96.91     LegendNANA
15:00 Legend Double Dagger 7.0 -3.0 49 31 22 16.1 96.92     LegendNANA
16:00 Legend Double Dagger 5.7 -3.3 53 29 21 16.1 97.00     LegendNANA
17:00 Legend Double Dagger 4.9 -1.8 62 28 22 16.1 97.05     LegendNANA
18:00 Legend Double Dagger 1.5 -0.9 84 29 11 16.1 97.12     LegendNANA
19:00 Legend Double Dagger 0.3 -1.2 90 24 13 16.1 97.15     LegendNANA
20:00 Legend Double Dagger 0.8 -0.8 89 24 5 16.1 97.15     LegendNANA
21:00 Legend Double Dagger 0.1 -1.2 91 29 11 16.1 97.16     LegendNANA
22:00 Legend Double Dagger 1.2 0.2 93 28 22 11.3 97.18     LegendNANA
23:00 Legend Double Dagger 0.7 -0.4 92 24 9 16.1 97.12     LegendNANA

Notes on Data Quality.

Legend

  • E = Estimated
  • M = Missing
  • NA = Not Available
  • ‡ = Partner data that is not subject to review by the National Climate Archives
Date modified: